Weather Roundup
Issued by NWS Chicago, IL

Home | Current Version | Previous Version | Text Only | Print | Product List | Glossary Off
Versions: 1 2 3 4 5 6 7 8 9 10 11 12 13 14 15 16 17 18 19 20 21 22 23 24 25 26 27 28 29 30 31 32 33 34 35 36 37 38 39 40 41 42 43 44 45 46 47 48 49 50

000
NZUS59 KLOT 252210
HRRLOT

CHICAGO AREA WEATHER ROUNDUP
NATIONAL WEATHER SERVICE CHICAGO/ROMEOVILLE IL
500 PM CDT SAT OCT 25 2014

NOTE: "FAIR" INDICATES FEW OR NO CLOUDS BELOW 12,000 FEET WITH NO
SIGNIFICANT WEATHER AND/OR OBSTRUCTIONS TO VISIBILITY.

* THESE STATIONS ARE NOT UNDER NWS QUALITY CONTROL. THEY ALSO MAY NOT
  REPORT WEATHER SUCH AS PRECIPITATION OR FOG.

ILZ005-006-012>014-019>023-252300-
NORTHEAST ILLINOIS

CITY           SKY/WX    TMP DP  RH WIND       PRES   REMARKS
OHARE          PTCLDY    69  28  21 W18       29.91R
MIDWAY         PTCLDY    72  29  20 W16G23    29.91S
AURORA         CLEAR     70  27  20 NW14G23   29.94S
LANSING*       CLEAR     70  31  22 W15G24    29.91S
JOLIET*        CLEAR     71  30  21 NW13G20   29.93S
WAUKEGAN       CLEAR     67  27  22 W12G20    29.89S
DUPAGE AIRPORT CLEAR     70  30  22 W17       29.92F
WHEELING       CLEAR     71  26  18 NW14G22   29.92S
KANKAKEE*      CLEAR     71  36  27 W14       29.94S
MORRIS*        CLEAR     71  34  25 NW16      29.93S
LEWIS AIRPORT* CLEAR     70  26  19 NW12G17   29.93S
NORTHERLY IS     N/A     71  23  16 W20         N/A
$$

WIZ051-052-058>065-066-070>072-252300-
SOUTHEAST WISCONSIN

CITY           SKY/WX    TMP DP  RH WIND       PRES   REMARKS
MILWAUKEE      PTCLDY    68  25  19 W17G26    29.88S
KENOSHA*       CLEAR     67  31  26 W16G22    29.89F
RACINE*        CLEAR     67  27  22 W8G21     29.90S
BURLINGTON     CLEAR     65  26  23 W17G26    29.91S
WAUKESHA       CLEAR     63  27  25 W20G25    29.90S
WEST BEND      CLEAR     63  25  23 W20G29    29.88S
$$

INZ001>003-010>013-019-020-252300-
NORTHWEST INDIANA

CITY           SKY/WX    TMP DP  RH WIND       PRES   REMARKS
GARY*          PTCLDY    73  28  19 W17G29    29.91S
MICHIGAN CITY* NOT AVBL
RENSSELAER*    NOT AVBL
VALPARAISO     CLEAR     70  33  25 W12       29.91S
$$

LMZ740>746-252300-
SOUTHERN LAKE MICHIGAN

STATION/POSITION TIME  SKY/WX   TEMP WIND        PRES    VSBY
                                AIR  DIR/SP/G
                 (UTC)          (F)  (DEG/KT/KT) (MB)    (MI)
HARRISON CRIB    2100            70  280/ 22/ 27   N/A
BURNHAM HARBOR   2200            71  270/  9/ 20   N/A
CALUMET HARBOR   2200            72  260/  5/ 13 1011.4F
BURNS HARBOR     NOT AVBL
MICHIGAN CITY    2200            63  240/  9/ 11   N/A
$$

ABBREVIATIONS USED IN REMARKS
   TC - TEMPERATURE IN CELSIUS
  WCI - WIND CHILL INDEX
   HX - HEAT INDEX
  VSB - VISIBILITY
$$



USA.gov is the U.S. government's official web portal to all federal, state and local government web resources and services.